E24CR-1 Weather Reports


Display with metric or nautical units.
time (UTC)temp
F
wind
direction
speed
MPH
gust
MPH
rain 1hr
in
rain 24hr
in
rain mn
in
humidity
%
barometer
mb
20260509155933 84 0 0.0 0.0 0.00 0.00 0.00 78 954.0
20260509154908 84 0 0.0 0.0 0.00 0.00 0.00 77 954.0
20260509153843 84 0 0.0 0.0 0.00 0.00 0.00 77 954.0
20260509152819 84 0 0.0 0.0 0.00 0.00 0.00 78 954.0
20260509151753 83 0 0.0 0.0 0.00 0.00 0.00 81 954.0
20260509150727 82 0 0.0 0.0 0.00 0.00 0.00 84 954.0
20260509145702 81 0 0.0 0.0 0.00 0.00 0.00 92 953.0
20260509144637 81 0 0.0 0.0 0.00 0.00 0.00 92 953.0
20260509143612 80 0 0.0 0.0 0.00 0.00 0.00 95 953.0
20260509142548 80 0 0.0 0.0 0.00 0.00 0.00 94 953.0
20260509141522 81 0 0.0 0.0 0.00 0.00 0.00 95 953.0
20260509140458 80 0 0.0 0.0 0.00 0.00 0.00 94 953.0
20260509135433 80 0 0.0 0.0 0.00 0.00 0.00 95 953.0
20260509134404 80 0 0.0 0.0 0.00 0.00 0.00 90 953.0
20260509133334 83 0 0.0 0.0 0.00 0.00 0.00 82 953.0
20260509132309 82 0 0.0 0.0 0.00 0.00 0.00 86 953.0
20260509131244 83 0 0.0 0.0 0.00 0.00 0.00 82 952.0
20260509130218 80 0 0.0 0.0 0.00 0.00 0.00 98 952.0
20260509125154 80 0 0.0 0.0 0.00 0.00 0.00 99 952.0
20260509124128 79 0 0.0 0.0 0.00 0.00 0.00 99 952.0
20260509123102 79 0 0.0 0.0 0.00 0.00 0.00 99 952.0
20260509122037 78 0 0.0 0.0 0.00 0.00 0.00 99 952.0
20260509121012 78 0 0.0 0.0 0.00 0.00 0.00 99 952.0
20260509115947 81 0 0.0 0.0 0.00 0.00 0.00 90 951.0
20260509114918 80 0 0.0 0.0 0.00 0.00 0.00 94 951.0
20260509113851 79 0 0.0 0.0 0.00 0.00 0.00 99 951.0
20260509112827 77 0 0.0 0.0 0.00 0.00 0.00 99 951.0
20260509111801 79 0 0.0 0.0 0.00 0.00 0.00 99 951.0
20260509110737 80 0 0.0 0.0 0.00 0.00 0.00 92 951.0
20260509105712 79 0 0.0 0.0 0.00 0.00 0.00 99 951.0
20260509104647 80 0 0.0 0.0 0.00 0.00 0.00 92 950.0
20260509103622 80 0 0.0 0.0 0.00 0.00 0.00 98 950.0
20260509102558 79 0 0.0 0.0 0.00 0.00 0.00 99 950.0
20260509101531 78 0 0.0 0.0 0.00 0.00 0.00 99 950.0
20260509100506 78 0 0.0 0.0 0.00 0.00 0.00 99 950.0
20260509095441 78 0 0.0 0.0 0.00 0.00 0.00 99 950.0
20260509094416 77 0 0.0 0.0 0.00 0.00 0.00 99 950.0
20260509093351 78 0 0.0 0.0 0.00 0.00 0.00 95 950.0
20260509092325 78 0 0.0 0.0 0.00 0.00 0.00 95 951.0
20260509091300 78 0 0.0 0.0 0.00 0.00 0.00 99 951.0
20260509090234 79 0 0.0 0.0 0.00 0.00 0.00 89 951.0
20260509085209 79 0 0.0 0.0 0.00 0.00 0.00 95 951.0
20260509084144 80 0 0.0 0.0 0.00 0.00 0.00 92 951.0
20260509083119 81 0 0.0 0.0 0.00 0.00 0.00 92 951.0
20260509082054 81 0 0.0 0.0 0.00 0.00 0.00 88 951.0
20260509081029 80 0 0.0 0.0 0.00 0.00 0.00 90 951.0
20260509080005 78 0 0.0 0.0 0.00 0.00 0.00 99 951.0
20260509074939 78 0 0.0 0.0 0.00 0.00 0.00 99 952.0
20260509073915 77 0 0.0 0.0 0.00 0.00 0.00 99 952.0
20260509072851 78 0 0.0 0.0 0.00 0.00 0.00 99 952.0
20260509071825 78 0 0.0 0.0 0.00 0.00 0.00 99 952.0
20260509070759 80 0 0.0 0.0 0.00 0.00 0.00 99 952.0
20260509065735 85 0 0.0 0.0 0.00 0.00 0.00 77 952.0
20260509064710 85 0 0.0 0.0 0.00 0.00 0.00 78 952.0
20260509063646 84 0 0.0 0.0 0.00 0.00 0.00 72 952.0
20260509062619 86 0 0.0 0.0 0.00 0.00 0.00 66 953.0
20260509061554 89 0 0.0 0.0 0.00 0.00 0.00 60 953.0
20260509060529 90 0 0.0 0.0 0.00 0.00 0.00 55 953.0
20260509055504 91 0 0.0 0.0 0.00 0.00 0.00 56 953.0
20260509054439 91 0 0.0 0.0 0.00 0.00 0.00 59 953.0
20260509053414 88 0 0.0 0.0 0.00 0.00 0.00 65 953.0
20260509052348 88 0 0.0 0.0 0.00 0.00 0.00 67 954.0
20260509051323 87 0 0.0 0.0 0.00 0.00 0.00 68 954.0
20260509050255 87 0 0.0 0.0 0.00 0.00 0.00 67 954.0
20260509045227 87 0 0.0 0.0 0.00 0.00 0.00 68 954.0
20260509044200 85 0 0.0 0.0 0.00 0.00 0.00 68 954.0
20260509043132 87 0 0.0 0.0 0.00 0.00 0.00 65 954.0
20260509042107 86 0 0.0 0.0 0.00 0.00 0.00 66 954.0
20260509041041 88 0 0.0 0.0 0.00 0.00 0.00 62 954.0
20260509040017 88 0 0.0 0.0 0.00 0.00 0.00 59 954.0
20260509034950 88 0 0.0 0.0 0.00 0.00 0.00 60 955.0
20260509034740 87 0 0.0 0.0 0.00 0.00 0.00 61 955.0
20260509033716 88 0 0.0 0.0 0.00 0.00 0.00 61 955.0
20260509032649 89 0 0.0 0.0 0.00 0.00 0.00 60 955.0
20260509031624 87 0 0.0 0.0 0.00 0.00 0.00 61 955.0
20260509030558 87 0 0.0 0.0 0.00 0.00 0.00 64 955.0
20260509025533 85 0 0.0 0.0 0.00 0.00 0.00 66 955.0
20260509024508 84 0 0.0 0.0 0.00 0.00 0.00 71 955.0
20260509023443 83 0 0.0 0.0 0.00 0.00 0.00 73 956.0
20260509022418 82 0 0.0 0.0 0.00 0.00 0.00 75 956.0
20260509021353 82 0 0.0 0.0 0.00 0.00 0.00 74 956.0
20260509020328 82 0 0.0 0.0 0.00 0.00 0.00 76 956.0
20260509015305 81 0 0.0 0.0 0.00 0.00 0.00 80 956.0
20260509014237 81 0 0.0 0.0 0.00 0.00 0.00 79 956.0
20260509013210 81 0 0.0 0.0 0.00 0.00 0.00 80 956.0
20260509012143 80 0 0.0 0.0 0.00 0.00 0.00 83 955.0
20260509011117 78 0 0.0 0.0 0.00 0.00 0.00 90 955.0
20260509010051 77 0 0.0 0.0 0.00 0.00 0.00 99 955.0
20260509005024 76 0 0.0 0.0 0.00 0.00 0.00 96 955.0
20260509003959 76 0 0.0 0.0 0.00 0.00 0.00 94 955.0
20260509002933 77 0 0.0 0.0 0.00 0.00 0.00 90 955.0
20260509001906 76 0 0.0 0.0 0.00 0.00 0.00 99 955.0
20260509000840 76 0 0.0 0.0 0.00 0.00 0.00 99 955.0
20260508235814 77 0 0.0 0.0 0.00 0.00 0.00 94 954.0
20260508234748 78 0 0.0 0.0 0.00 0.00 0.00 86 954.0
20260508233722 79 0 0.0 0.0 0.00 0.00 0.00 81 954.0
20260508232654 80 0 0.0 0.0 0.00 0.00 0.00 75 954.0
20260508231629 81 0 0.0 0.0 0.00 0.00 0.00 72 954.0
20260508230604 83 0 0.0 0.0 0.00 0.00 0.00 69 954.0
20260508225540 83 0 0.0 0.0 0.00 0.00 0.00 69 953.0
20260508224514 82 0 0.0 0.0 0.00 0.00 0.00 70 953.0
20260508223449 82 0 0.0 0.0 0.00 0.00 0.00 71 953.0
20260508222422 81 0 0.0 0.0 0.00 0.00 0.00 71 953.0
20260508221358 81 0 0.0 0.0 0.00 0.00 0.00 69 953.0
20260508220331 82 0 0.0 0.0 0.00 0.00 0.00 68 953.0
20260508215256 82 0 0.0 0.0 0.00 0.00 0.00 67 953.0
20260508214231 82 0 0.0 0.0 0.00 0.00 0.00 69 953.0
20260508213206 82 0 0.0 0.0 0.00 0.00 0.00 69 953.0
20260508212142 83 0 0.0 0.0 0.00 0.00 0.00 67 953.0
20260508211116 83 0 0.0 0.0 0.00 0.00 0.00 67 953.0
20260508210052 83 0 0.0 0.0 0.00 0.00 0.00 68 953.0
20260508205027 83 0 0.0 0.0 0.00 0.00 0.00 67 953.0
20260508204002 84 0 0.0 0.0 0.00 0.00 0.00 67 953.0
20260508202937 84 0 0.0 0.0 0.00 0.00 0.00 67 953.0
20260508201912 84 0 0.0 0.0 0.00 0.00 0.00 67 953.0
20260508200847 83 0 0.0 0.0 0.00 0.00 0.00 67 953.0
20260508195821 83 0 0.0 0.0 0.00 0.00 0.00 68 953.0
20260508194756 81 0 0.0 0.0 0.00 0.00 0.00 71 952.0
20260508193731 82 0 0.0 0.0 0.00 0.00 0.00 71 953.0
20260508192705 83 0 0.0 0.0 0.00 0.00 0.00 69 953.0
20260508191641 82 0 0.0 0.0 0.00 0.00 0.00 72 953.0
20260508190616 80 0 0.0 0.0 0.00 0.00 0.00 76 953.0
20260508185550 81 0 0.0 0.0 0.00 0.00 0.00 74 953.0
20260508184525 80 0 0.0 0.0 0.00 0.00 0.00 76 953.0
20260508183500 80 0 0.0 0.0 0.00 0.00 0.00 76 953.0
20260508182435 81 0 0.0 0.0 0.00 0.00 0.00 73 953.0
20260508181410 80 0 0.0 0.0 0.00 0.00 0.00 75 953.0
20260508180344 81 0 0.0 0.0 0.00 0.00 0.00 73 953.0
20260508175319 79 0 0.0 0.0 0.00 0.00 0.00 76 953.0
20260508174255 80 0 0.0 0.0 0.00 0.00 0.00 74 953.0
20260508173228 80 0 0.0 0.0 0.00 0.00 0.00 73 953.0
20260508172203 81 0 0.0 0.0 0.00 0.00 0.00 70 953.0
20260508171138 80 0 0.0 0.0 0.00 0.00 0.00 73 954.0
20260508170113 80 0 0.0 0.0 0.00 0.00 0.00 74 954.0
20260508165047 80 0 0.0 0.0 0.00 0.00 0.00 73 954.0
20260508164022 80 0 0.0 0.0 0.00 0.00 0.00 74 954.0
20260508162957 81 0 0.0 0.0 0.00 0.00 0.00 72 954.0
20260508161931 82 0 0.0 0.0 0.00 0.00 0.00 68 954.0
20260508160907 83 0 0.0 0.0 0.00 0.00 0.00 67 954.0